Date String (YYYY-MM-DD hh:mm:ss) UTC,Instrument flags,Ambient pressure (hPa),Sample flow (lpm),Bypass flow (lpm),Sample temperature (°C),Ambient temperature (°C),ASC tube jacket temperature (°C),LED temperature (°C),Box temperature (°C),Sample RH (%),Span deviation,Mass concentration (μg/m³),Mass concentration (μg/m³),Mass concentration (μg/m³)
DateTimeUTC,F1_M11,P_M11,Q1_M11,Q2_M11,T1_M11,T2_M11,T3_M11,T4_M11,T5_M11,U1_M11,ZSPAN_M11,X0_M11,X2_M11,X1_M11
2022-01-18 02:00:00,,0821.1,5.02,0.00,26.1,25.2,00.0,35.0,27.8,07.3,0000.0,0016.11,0006.18,0005.44
2022-01-18 02:01:00,,0821.1,5.00,0.00,26.1,25.2,00.0,35.0,27.8,07.3,0000.0,0016.06,0006.24,0005.52
2022-01-18 02:02:00,,0821.1,5.00,0.00,26.1,25.2,00.0,35.0,27.8,07.3,0000.0,0016.58,0006.31,0005.57
2022-01-18 02:03:00,,0821.1,5.00,0.00,26.1,25.2,00.0,35.0,27.8,07.3,0000.0,0016.57,0006.34,0005.59
2022-01-18 02:04:00,,0821.1,5.00,0.00,26.0,25.2,00.0,35.0,27.8,07.3,0000.0,0017.23,0006.39,0005.63
2022-01-18 02:05:00,,0821.1,5.00,0.00,26.0,25.2,00.0,35.0,27.8,07.3,0000.0,0017.27,0006.41,0005.68
2022-01-18 02:06:00,,0821.1,5.01,0.00,26.0,25.2,00.0,35.0,27.8,07.3,0000.0,0016.49,0006.44,0005.72
2022-01-18 02:07:00,,0821.2,5.00,0.00,26.0,25.2,00.0,35.0,27.8,07.4,0000.0,0015.92,0006.44,0005.73
2022-01-18 02:08:00,,0821.2,5.01,0.00,26.0,25.2,00.0,35.0,27.8,07.3,0000.0,0016.07,0006.44,0005.73
2022-01-18 02:09:00,,0821.2,4.99,0.00,26.0,25.2,00.0,35.0,27.8,07.3,0000.0,0014.80,0006.45,0005.77
2022-01-18 02:10:00,,0821.2,5.01,0.00,26.0,25.2,00.0,35.0,27.8,07.3,0000.0,0014.08,0006.46,0005.75
2022-01-18 02:11:00,,0821.2,4.99,0.00,26.0,25.2,00.0,35.0,27.8,07.3,0000.0,0013.64,0006.40,0005.68
2022-01-18 02:12:00,,0821.1,5.01,0.00,26.0,25.2,00.0,35.0,27.8,07.3,0000.0,0013.99,0006.39,0005.61
2022-01-18 02:13:00,,0821.2,4.99,0.00,26.0,25.2,00.0,35.0,27.8,07.3,0000.0,0013.68,0006.35,0005.56
2022-01-18 02:14:00,,0821.2,4.99,0.00,26.0,25.2,00.0,35.0,27.8,07.2,0000.0,0013.53,0006.28,0005.47
2022-01-18 02:15:00,,0821.2,5.01,0.00,26.0,25.2,00.0,35.0,27.8,07.2,0000.0,0012.22,0006.12,0005.35
2022-01-18 02:16:00,,0821.2,4.99,0.00,26.0,25.2,00.0,35.0,27.8,07.2,0000.0,0012.15,0005.94,0005.18
2022-01-18 02:17:00,,0821.2,5.01,0.00,26.0,25.2,00.0,35.0,27.8,07.2,0000.0,0012.02,0005.76,0004.98
2022-01-18 02:18:00,,0821.2,4.98,0.00,26.0,25.2,00.0,35.0,27.8,07.2,0000.0,0012.56,0005.56,0004.76
2022-01-18 02:19:00,,0821.2,5.01,0.00,26.0,25.2,00.0,35.0,27.8,07.2,0000.0,0012.05,0005.32,0004.55
2022-01-18 02:20:00,,0821.2,5.00,0.00,26.0,25.2,00.0,35.0,27.8,07.2,0000.0,0011.73,0005.15,0004.36
2022-01-18 02:21:00,,0821.2,5.00,0.00,26.0,25.2,00.0,35.0,27.8,07.3,0000.0,0011.51,0004.96,0004.20
2022-01-18 02:22:00,,0821.2,4.99,0.00,26.0,25.2,00.0,35.0,27.8,07.2,0000.0,0011.33,0004.78,0004.03
2022-01-18 02:23:00,,0821.2,5.01,0.00,26.0,25.2,00.0,35.0,27.8,07.1,0000.0,0011.12,0004.53,0003.85
2022-01-18 02:24:00,,0821.2,4.99,0.00,26.0,25.2,00.0,35.0,27.8,07.2,0000.0,0010.66,0004.35,0003.69
2022-01-18 02:25:00,,0821.2,4.99,0.00,26.0,25.2,00.0,35.0,27.8,07.1,0000.0,0011.52,0004.25,0003.59
2022-01-18 02:26:00,,0821.2,5.00,0.00,26.0,25.2,00.0,35.0,27.8,07.1,0000.0,0011.56,0004.21,0003.53
2022-01-18 02:27:00,,0821.2,4.99,0.00,26.0,25.2,00.0,35.0,27.8,07.1,0000.0,0011.91,0004.23,0003.50
2022-01-18 02:28:00,,0821.1,5.02,0.00,26.0,25.2,00.0,35.0,27.8,07.1,0000.0,0012.56,0004.24,0003.50
2022-01-18 02:29:00,,0821.2,5.00,0.00,26.0,25.2,00.0,35.0,27.8,07.1,0000.0,0012.12,0004.27,0003.51
2022-01-18 02:30:00,,0821.2,5.01,0.00,26.0,25.2,00.0,35.0,27.7,07.1,0000.0,0012.04,0004.30,0003.53
2022-01-18 02:31:00,,0821.1,4.99,0.00,26.0,25.2,00.0,35.0,27.8,07.1,0000.0,0012.32,0004.30,0003.53
2022-01-18 02:32:00,,0821.2,5.01,0.00,26.0,25.2,00.0,35.0,27.7,07.2,0000.0,0012.95,0004.28,0003.52
2022-01-18 02:33:00,,0821.2,4.99,0.00,26.0,25.1,00.0,35.0,27.7,07.2,0000.0,0013.24,0004.26,0003.51
2022-01-18 02:34:00,,0821.2,5.01,0.00,26.0,25.1,00.0,35.0,27.7,07.2,0000.0,0012.74,0004.28,0003.53
2022-01-18 02:35:00,,0821.2,4.99,0.00,26.0,25.1,00.0,34.9,27.7,07.3,0000.0,0012.72,0004.28,0003.56
2022-01-18 02:36:00,,0821.2,5.01,0.00,25.9,25.1,00.0,34.9,27.7,07.3,0000.0,0012.32,0004.30,0003.58
2022-01-18 02:37:00,,0821.3,4.99,0.00,25.9,25.1,00.0,34.9,27.7,07.2,0000.0,0011.97,0004.28,0003.60
2022-01-18 02:38:00,,0821.3,5.01,0.00,25.9,25.1,00.0,34.9,27.7,07.3,0000.0,0011.26,0004.25,0003.62
2022-01-18 02:39:00,,0821.3,4.99,0.00,25.9,25.1,00.0,34.9,27.7,07.3,0000.0,0010.67,0004.23,0003.64
2022-01-18 02:40:00,,0821.3,5.01,0.00,25.9,25.1,00.0,34.9,27.7,07.4,0000.0,0010.74,0004.21,0003.65
2022-01-18 02:41:00,,0821.3,4.99,0.00,25.9,25.1,00.0,34.9,27.7,07.5,0000.0,0010.46,0004.19,0003.66
2022-01-18 02:42:00,,0821.3,5.01,0.00,25.9,25.1,00.0,34.9,27.7,07.5,0000.0,0010.01,0004.15,0003.65
2022-01-18 02:43:00,,0821.3,4.99,0.00,25.9,25.1,00.0,34.9,27.7,07.3,0000.0,0009.60,0004.12,0003.66
2022-01-18 02:44:00,,0821.3,5.00,0.00,25.9,25.1,00.0,34.9,27.7,07.3,0000.0,0009.40,0004.15,0003.67
2022-01-18 02:45:00,,0821.3,5.01,0.00,25.9,25.1,00.0,34.9,27.7,07.3,0000.0,0009.48,0004.18,0003.67
2022-01-18 02:46:00,,0821.3,4.99,0.00,25.9,25.1,00.0,34.9,27.7,07.3,0000.0,0009.53,0004.20,0003.67
2022-01-18 02:47:00,,0821.2,5.02,0.00,25.9,25.1,00.0,34.9,27.7,07.3,0000.0,0008.76,0004.18,0003.66
2022-01-18 02:48:00,,0821.2,4.99,0.00,25.9,25.1,00.0,34.9,27.7,07.2,0000.0,0008.83,0004.21,0003.66
2022-01-18 02:49:00,,0821.2,5.01,0.00,25.9,25.0,00.0,34.9,27.6,07.2,0000.0,0009.50,0004.20,0003.65
2022-01-18 02:50:00,,0821.2,4.98,0.00,25.9,25.1,00.0,34.9,27.7,07.2,0000.0,0009.93,0004.18,0003.66
2022-01-18 02:51:00,,0821.1,5.01,0.00,25.9,25.1,00.0,34.9,27.7,07.2,0000.0,0009.59,0004.21,0003.67
2022-01-18 02:52:00,,0821.1,4.99,0.00,25.9,25.1,00.0,34.9,27.7,07.2,0000.0,0009.58,0004.22,0003.68
2022-01-18 02:53:00,,0821.2,5.00,0.00,25.9,25.1,00.0,34.9,27.7,07.2,0000.0,0009.73,0004.27,0003.70
2022-01-18 02:54:00,,0821.1,5.00,0.00,25.9,25.1,00.0,34.9,27.7,07.3,0000.0,0009.50,0004.31,0003.72
2022-01-18 02:55:00,,0821.1,4.99,0.00,25.9,25.1,00.0,34.9,27.7,07.1,0000.0,0009.67,0004.32,0003.74
2022-01-18 02:56:00,,0821.1,5.02,0.00,25.9,25.0,00.0,34.9,27.7,07.0,0000.0,0009.73,0004.38,0003.80
2022-01-18 02:57:00,,0821.2,5.00,0.00,25.9,25.0,00.0,34.9,27.7,07.2,0000.0,0010.25,0004.41,0003.84
2022-01-18 02:58:00,,0821.2,5.01,0.00,25.9,25.0,00.0,34.9,27.6,07.4,0000.0,0010.49,0004.43,0003.86
2022-01-18 02:59:00,,0821.1,5.01,0.00,25.8,25.0,00.0,34.9,27.6,07.2,0000.0,0011.32,0004.50,0003.93
